TimeCET,TemperatureF,Dew PointF,Humidity,Sea Level PressureIn,VisibilityMPH,Wind Direction,Wind SpeedMPH,Gust SpeedMPH,PrecipitationIn,Events,Conditions,WindDirDegrees,DateUTC
12:00 AM,50.0,48.2,94,29.98,5.6,SW,8.1,-,N/A,Rain,Light Rain,220,2012-11-25 23:00:00
12:30 AM,50.0,50.0,100,29.98,5.6,SW,11.5,-,N/A,Rain,Light Rain,230,2012-11-25 23:30:00
1:00 AM,51.8,50.0,94,29.98,5.6,West,8.1,-,N/A,Rain,Light Rain,260,2012-11-26 00:00:00
5:30 AM,50.0,42.8,76,30.01,6.2,WNW,5.8,-,N/A,,Scattered Clouds,290,2012-11-26 04:30:00
6:00 AM,50.0,42.8,76,30.01,6.2,WNW,16.1,32.2,N/A,Rain,Rain,300,2012-11-26 05:00:00
6:30 AM,50.0,44.6,82,30.01,6.2,West,5.8,-,N/A,Rain,Rain,270,2012-11-26 05:30:00
7:00 AM,48.2,44.6,87,30.01,6.2,Variable,2.3,-,N/A,Rain,Light Rain,0,2012-11-26 06:00:00
7:30 AM,48.2,41.0,76,30.01,6.2,WNW,16.1,27.6,N/A,Rain,Rain,290,2012-11-26 06:30:00
8:00 AM,48.2,44.6,87,30.01,6.2,West,4.6,-,N/A,,Scattered Clouds,270,2012-11-26 07:00:00
8:30 AM,50.0,44.6,82,30.04,6.2,West,3.5,-,N/A,,Scattered Clouds,260,2012-11-26 07:30:00
9:00 AM,50.0,42.8,76,30.04,6.2,NW,4.6,-,N/A,,Scattered Clouds,310,2012-11-26 08:00:00
9:30 AM,51.8,44.6,76,30.04,6.2,NNW,11.5,24.2,N/A,,Scattered Clouds,340,2012-11-26 08:30:00
10:00 AM,51.8,42.8,71,30.04,6.2,NNW,6.9,-,N/A,,Partly Cloudy,330,2012-11-26 09:00:00
10:30 AM,51.8,42.8,71,30.04,6.2,NNW,16.1,-,N/A,Rain,Rain Showers,330,2012-11-26 09:30:00
11:00 AM,51.8,44.6,76,30.04,6.2,NW,4.6,-,N/A,,Scattered Clouds,320,2012-11-26 10:00:00
11:30 AM,51.8,44.6,76,30.06,6.2,NNW,4.6,-,N/A,,Partly Cloudy,330,2012-11-26 10:30:00
12:00 PM,51.8,42.8,71,30.06,6.2,North,9.2,-,N/A,,Scattered Clouds,360,2012-11-26 11:00:00
12:30 PM,53.6,44.6,72,30.06,6.2,NNW,8.1,-,N/A,,Scattered Clouds,340,2012-11-26 11:30:00
1:00 PM,51.8,42.8,71,30.04,6.2,NW,16.1,-,N/A,,Partly Cloudy,310,2012-11-26 12:00:00
1:30 PM,50.0,42.8,76,30.04,6.2,WNW,17.3,-,N/A,,Scattered Clouds,300,2012-11-26 12:30:00
2:00 PM,53.6,44.6,72,30.04,6.2,West,9.2,-,N/A,,Scattered Clouds,280,2012-11-26 13:00:00
2:30 PM,51.8,44.6,76,30.01,4.3,WNW,12.7,25.3,N/A,Rain,Light Rain Showers,300,2012-11-26 13:30:00
3:00 PM,50.0,42.8,76,30.01,6.2,NNW,10.4,-,N/A,,Mostly Cloudy,340,2012-11-26 14:00:00
3:30 PM,53.6,46.4,77,30.01,6.2,NW,3.5,-,N/A,,Scattered Clouds,320,2012-11-26 14:30:00
4:00 PM,53.6,44.6,72,30.01,6.2,North,12.7,-,N/A,,Scattered Clouds,350,2012-11-26 15:00:00
4:30 PM,53.6,42.8,67,30.01,6.2,North,11.5,-,N/A,,Scattered Clouds,350,2012-11-26 15:30:00
5:00 PM,53.6,44.6,72,30.01,6.2,NNW,8.1,-,N/A,,Scattered Clouds,330,2012-11-26 16:00:00
5:30 PM,51.8,42.8,71,30.01,6.2,NNE,10.4,-,N/A,,Scattered Clouds,30,2012-11-26 16:30:00
6:00 PM,51.8,42.8,71,30.01,6.2,NNW,8.1,-,N/A,,Scattered Clouds,330,2012-11-26 17:00:00
6:30 PM,50.0,42.8,76,30.04,5.6,NNW,16.1,-,N/A,Rain,Light Rain Showers,330,2012-11-26 17:30:00
7:00 PM,48.2,42.8,82,30.04,5.6,Variable,1.2,-,N/A,Rain,Light Rain Showers,0,2012-11-26 18:00:00
7:30 PM,46.4,44.6,93,30.04,6.2,Variable,2.3,-,N/A,Rain,Rain,0,2012-11-26 18:30:00
8:00 PM,46.4,44.6,93,30.04,6.2,Variable,2.3,-,N/A,,Mostly Cloudy,0,2012-11-26 19:00:00
8:30 PM,46.4,44.6,93,30.04,5.6,South,3.5,-,N/A,Rain,Rain,180,2012-11-26 19:30:00
9:00 PM,46.4,44.6,93,30.04,6.2,Variable,2.3,-,N/A,Rain,Light Rain,0,2012-11-26 20:00:00
9:30 PM,44.6,44.6,100,30.04,6.2,South,4.6,-,N/A,,Mostly Cloudy,190,2012-11-26 20:30:00
10:00 PM,46.4,44.6,93,30.06,6.2,Variable,2.3,-,N/A,Rain,Light Rain,0,2012-11-26 21:00:00
10:30 PM,46.4,44.6,93,30.06,6.2,ENE,3.5,-,N/A,,Mostly Cloudy,60,2012-11-26 21:30:00
11:00 PM,46.4,44.6,93,30.04,6.2,SSE,3.5,-,N/A,,Mostly Cloudy,160,2012-11-26 22:00:00
11:30 PM,44.6,44.6,100,30.04,6.2,SSW,4.6,-,N/A,,Mostly Cloudy,210,2012-11-26 22:30:00